STARLINK-34470, 64703

Orbit data source: Space-Track

STARLINK-34470, 64703 is a payload satellite owned by SpaceX/Seattle (US) in LEO that was launched on Sat, 28 Jun 2025 UTC via an FALCON 9 launch vehicle from the Air Force Western Test Range (AFWTR). Payload-class satellites include a variety of spacecraft equipped with specific instruments for various scientific and technological missions. These include communications satellites like Starlink; space stations such as the ISS; scientific satellites like the Hubble; Earth observation satellites from companies like Planet Labs, Umbra, and HawkEye 360; GPS; miniature CubeSats for education and research; and military/defense satellites.

Loading next visibility...
Identifier
64703, 2025-142H
Orbit
LEO
Country
Flag of USUS
Related business
Manufacturer
SpaceX/Seattle
Mission
Operational Commercial Communications
Bus & Motor
STARLINK V2MO, Unknown motor
Mass
575 kg wet, ~530 kg dry
Launch date (UTC)
2025-06-28 (1 year ago)
Launch vehicle
FALCON 9
Launch site
Air Force Western Test Range (AFWTR)
Object type
Payload
Rocket body
Debris
Shape & HBR
Box + 2 Pan, 17.7 m
Radar Cross Section
36.964 m², Large (>1 m²)

Expand to show TLE details & history
Last TLE update: 7 hours ago

TLE from 7 hours ago
0 STARLINK-34470
1 64703U 25142H   26207.60846334  .00003497  00000-0  30071-3 0  9992
2 64703  70.0021 323.9964 0003211 270.1665  89.9126 14.98336152 60274
Epoch: 2026-07-26T14:36Z
TLE epoch observation values (Epoch: 2026-07-26T14:36:11.232Z)
Latitude
-0.00004°
Longitude
160.64564°
Altitude
574.458 km
Speed
7.574 km/s
True Right ascension
21h 35m 59s
True Declination
0° 00' 00"
Sunlit
Object was in full shadow at epoch
Visualization orbit readout
Latitude
Unknown
Longitude
Unknown
Altitude
Unknown
Speed
Unknown
Apparent Right ascension
Unknown
Apparent Declination
Unknown
Sunlit
N/A
Visualization observer readout
Local Sidereal Time
11:04:32
Azimuth
Unknown
Elevation
Unknown
Doppler factor
Unknown
Orbital elements
Apogee altitude
572.216 km
Perigee altitude
567.754 km
Semi-major axis
6,948.122 km
Eccentricity
0.00032
Inclination
70.0021°
RAAN
323.9964°
Arg. of periapsis
270.1665°
True anomaly
89.9494°
Mean anomaly
89.9126°
Eccentric anomaly
89.931°
Mean motion
3.7475 °/min
Orbital period
96.06 mins
BSTAR
0.00030071
Loading maneuver chart data...
Computing Atmospheric mass density...
Loading historical data...
Loading historical data...
Loading historical data...
Loading historical data...
Loading historical data...
Loading historical data...
Loading historical data...

Documentation

Showing up to 5 results
|